This is the latest recevied weather packets stored in our database for station/object N3MFL. If no packets are shown the sender has not sent any weather packets the latest 10 day(s).
| Time | Temp. | Humidity | Pressure | Rain* | Wind** | Luminosity | Snow |
|---|---|---|---|---|---|---|---|
| 1778082801 | 18.89° C | 69% | 1011.4 hPa | 0 mm | - | 330 W/m² | - |
| 1778081673 | 19.44° C | 69% | 1011.7 hPa | 0 mm | - | 358 W/m² | - |
| 1778081371 | 19.44° C | 68% | 1011.8 hPa | 0 mm | - | 596 W/m² | - |
| 1778081067 | 18.89° C | 69% | 1011.7 hPa | 0 mm | - | 639 W/m² | - |
| 1778080766 | 18.33° C | 71% | 1011.7 hPa | 0 mm | - | 552 W/m² | - |
| 1778080462 | 18.33° C | 71% | 1011.7 hPa | 0 mm | - | 363 W/m² | - |
| 1778080160 | 18.33° C | 70% | 1011.8 hPa | 0 mm | - | 652 W/m² | - |
| 1778079856 | 18.33° C | 72% | 1012.1 hPa | 0 mm | - | 545 W/m² | - |
| 1778079553 | 18.33° C | 72% | 1011.9 hPa | 0 mm | - | 461 W/m² | - |
| 1778079249 | 18.33° C | 71% | 1011.8 hPa | 0 mm | - | 375 W/m² | - |
| 1778078947 | 17.78° C | 73% | 1011.8 hPa | 0 mm | - | 426 W/m² | - |
| 1778078643 | 17.78° C | 72% | 1011.8 hPa | 0 mm | - | 278 W/m² | - |
| 1778078342 | 17.78° C | 72% | 1011.8 hPa | 0 mm | - | 389 W/m² | - |
| 1778078038 | 17.78° C | 73% | 1011.7 hPa | 0 mm | - | 260 W/m² | - |
| 1778077737 | 18.33° C | 72% | 1011.8 hPa | 0 mm | - | 248 W/m² | - |
| 1778077434 | 18.33° C | 71% | 1011.8 hPa | 0 mm | - | 252 W/m² | - |
| 1778077132 | 18.89° C | 70% | 1012 hPa | 0 mm | - | 348 W/m² | - |
| 1778076830 | 18.33° C | 71% | 1011.8 hPa | 0 mm | - | 479 W/m² | - |
| 1778076528 | 18.33° C | 71% | 1011.6 hPa | 0 mm | - | 311 W/m² | - |
| 1778076224 | 18.33° C | 72% | 1011.6 hPa | 0 mm | - | 330 W/m² | - |
| 1778075922 | 18.33° C | 72% | 1011.5 hPa | 0 mm | - | 288 W/m² | - |
| 1778075618 | 18.33° C | 71% | 1011.9 hPa | 0 mm | - | 403 W/m² | - |
| 1778075314 | 18.89° C | 70% | 1011.9 hPa | 0 mm | - | 573 W/m² | - |
| 1778075011 | 18.33° C | 72% | 1011.9 hPa | 0 mm | - | 485 W/m² | - |
| 1778074708 | 18.89° C | 71% | 1012.1 hPa | 0 mm | - | 449 W/m² | - |
* Rain latest hour (hover to see other rain measurements)
** Current wind speed in m/s (hover to see current wind gust speed)